Waskish, MN

4:26 AM CST on February 21, 2018 (GMT -0600)
Waskish Municipal

Weather History for KVWU - March, 2013

Change the Weather History Date:

Saturday, March 30, 2013

  Actual Average (KBDE) Record (KBDE)
Temperature  
Mean Temperature 36 °F -  
Max Temperature 48 °F 42 °F 71 °F (1967)
Min Temperature 24 °F 21 °F -16 °F (1975)
Degree Days  
Heating Degree Days 29    
Moisture  
Dew Point 28 °F    
Average Humidity 77    
Maximum Humidity 100    
Minimum Humidity 40    
Precipitation  
Precipitation 0.00 in - - ()
Sea Level Pressure  
Sea Level Pressure 29.86 in    
Wind  
Wind Speed 3 mph (WSW)    
Max Wind Speed 13 mph    
Max Gust Speed -    
Visibility 10 miles    
Events Snow , Thunderstorm    
Averages and records for this station are not official NWS values.
T = Trace of Precipitation, MM = Missing Value Source: NWS Daily Summary

Daily Weather History Graph

Daily Weather History Graph

Search for Another Location

Airport or City:

Trip Planner

Search our weather history database for the weather conditions in past years. The results will help you decide how hot, cold, wet, or windy it might be!

Date:

Astronomy

Mar. 30, 2013 Rise Set
Actual Time 6:59 AM CDT 7:45 PM CDT
Civil Twilight 6:28 AM CDT 8:17 PM CDT
Nautical Twilight 5:50 AM CDT 8:55 PM CDT
Astronomical Twilight 5:11 AM CDT 9:34 PM CDT
Moon No Moon Rise 8:38 AM CDT (3/30)
Length of Visible Light 13h 49m
Length of Day
12h 46m
Waning Gibbous, 86% of the Moon is Illuminated
Mar 30
Waning Gibbous
Apr 2
Last Quarter
Apr 10
New
Apr 18
First Quarter
Apr 25
Full

Hourly Weather History & Observations

Time (CDT) Temp. Windchill Dew Point Humidity Pressure Visibility Wind Dir Wind Speed Gust Speed Precip Events Conditions
12:08 AM 26.6 °F - 24.8 °F 93% 29.98 in 10.0 mi Calm Calm - N/A   Clear
12:49 AM 26.6 °F - 24.8 °F 93% 29.96 in 10.0 mi Calm Calm - N/A   Mostly Cloudy
1:08 AM 26.6 °F - 24.8 °F 93% 29.95 in 10.0 mi Calm Calm - N/A Thunderstorm Overcast
1:28 AM 28.4 °F - 26.6 °F 93% 29.96 in 10.0 mi Calm Calm - N/A   Overcast
1:49 AM 28.4 °F - 26.6 °F 93% 29.95 in 10.0 mi Calm Calm - N/A   Overcast
2:08 AM 28.4 °F - 26.6 °F 93% 29.94 in 10.0 mi Calm Calm - N/A   Overcast
2:28 AM 28.4 °F - 26.6 °F 93% 29.94 in 10.0 mi Calm Calm - N/A   Overcast
2:49 AM 28.4 °F - 26.6 °F 93% 29.93 in 10.0 mi Calm Calm - N/A   Overcast
3:08 AM 28.4 °F - 26.6 °F 93% 29.92 in 10.0 mi Calm Calm - N/A   Overcast
3:28 AM 30.2 °F - 26.6 °F 86% 29.91 in 10.0 mi Calm Calm - N/A   Overcast
3:49 AM 28.4 °F - 26.6 °F 93% 29.90 in 10.0 mi Calm Calm - N/A   Overcast
4:08 AM 28.4 °F - 26.6 °F 93% 29.89 in 10.0 mi Calm Calm - N/A   Mostly Cloudy
4:29 AM 28.4 °F - 26.6 °F 93% 29.89 in 10.0 mi Calm Calm - N/A   Overcast
4:49 AM 28.4 °F - 26.6 °F 93% 29.89 in 10.0 mi Calm Calm - N/A   Overcast
5:08 AM 28.4 °F - 26.6 °F 93% 29.89 in 10.0 mi Calm Calm - N/A   Overcast
5:29 AM 28.4 °F - 26.6 °F 93% 29.89 in 10.0 mi Calm Calm - N/A   Overcast
5:49 AM 28.4 °F - 26.6 °F 93% 29.89 in 10.0 mi Calm Calm - N/A   Overcast
6:08 AM 28.4 °F - 26.6 °F 93% 29.88 in 10.0 mi Calm Calm - N/A   Mostly Cloudy
6:49 AM 24.8 °F - 24.8 °F 100% 29.88 in 10.0 mi Calm Calm - N/A   Overcast
7:08 AM 24.8 °F - 24.8 °F 100% 29.88 in 10.0 mi Calm Calm - N/A   Mostly Cloudy
7:28 AM 26.6 °F - 24.8 °F 93% 29.88 in 7.0 mi Calm Calm - N/A   Clear
7:48 AM 26.6 °F - 26.6 °F 100% 29.88 in 7.0 mi Calm Calm - N/A   Clear
8:08 AM 28.4 °F - 26.6 °F 93% 29.88 in 10.0 mi Calm Calm - N/A   Clear
8:29 AM 30.2 °F 26.7 °F 26.6 °F 86% 29.88 in 10.0 mi WSW 3.5 mph - N/A   Clear
8:48 AM 33.8 °F 30.8 °F 28.4 °F 81% 29.88 in 10.0 mi West 3.5 mph - N/A   Mostly Cloudy
9:08 AM 30.2 °F 24.3 °F 26.6 °F 86% 29.87 in 10.0 mi WSW 5.8 mph - N/A   Mostly Cloudy
9:29 AM 33.8 °F 28.6 °F 28.4 °F 81% 29.87 in 10.0 mi WSW 5.8 mph - N/A   Scattered Clouds
9:48 AM 35.6 °F 29.9 °F 30.2 °F 81% 29.87 in 7.0 mi SW 6.9 mph - N/A   Clear
10:08 AM 37.4 °F 31.4 °F 30.2 °F 75% 29.87 in 7.0 mi SW 8.1 mph - N/A   Clear
10:29 AM 39.2 °F 33.6 °F 30.2 °F 70% 29.87 in 7.0 mi SW 8.1 mph - N/A   Clear
10:48 AM 39.2 °F 33.6 °F 30.2 °F 70% 29.86 in 10.0 mi SW 8.1 mph - N/A   Clear
11:08 AM 41.0 °F 36.4 °F 30.2 °F 65% 29.86 in 10.0 mi SW 6.9 mph - N/A   Clear
11:29 AM 42.8 °F 38.0 °F 30.2 °F 61% 29.86 in 10.0 mi SW 8.1 mph - N/A   Clear
11:48 AM 42.8 °F 38.0 °F 32.0 °F 66% 29.86 in 10.0 mi SW 8.1 mph - N/A   Clear
12:08 PM 44.6 °F 39.7 °F 32.0 °F 61% 29.85 in 10.0 mi SW 9.2 mph - N/A   Clear
12:29 PM 44.6 °F 39.7 °F 32.0 °F 61% 29.86 in 10.0 mi SW 9.2 mph - N/A   Clear
12:48 PM 46.4 °F 41.9 °F 33.8 °F 62% 29.86 in 10.0 mi WSW 9.2 mph - N/A   Clear
1:08 PM 46.4 °F 41.9 °F 33.8 °F 62% 29.85 in 10.0 mi WSW 9.2 mph - N/A   Mostly Cloudy
1:29 PM 44.6 °F 38.4 °F 33.8 °F 66% 29.85 in 10.0 mi West 12.7 mph - N/A   Overcast
1:48 PM 44.6 °F 38.8 °F 33.8 °F 66% 29.85 in 10.0 mi West 11.5 mph - N/A   Scattered Clouds
2:08 PM 46.4 °F 41.5 °F 33.8 °F 62% 29.85 in 10.0 mi West 10.4 mph - N/A   Clear
2:29 PM 44.6 °F 41.4 °F 32.0 °F 61% 29.85 in 10.0 mi West 5.8 mph - N/A   Clear
2:48 PM 48.2 °F - 26.6 °F 43% 29.84 in 10.0 mi NW 5.8 mph - N/A   Clear
3:08 PM 48.2 °F - 26.6 °F 43% 29.84 in 10.0 mi NW 8.1 mph - N/A   Clear
3:29 PM 48.2 °F - 24.8 °F 40% 29.84 in 10.0 mi NW 5.8 mph - N/A   Clear
3:48 PM 48.2 °F - 24.8 °F 40% 29.84 in 10.0 mi WNW 5.8 mph - N/A   Clear
4:08 PM 46.4 °F 44.3 °F 26.6 °F 46% 29.84 in 10.0 mi WSW 4.6 mph - N/A   Clear
4:29 PM 46.4 °F 42.9 °F 26.6 °F 46% 29.83 in 10.0 mi WSW 6.9 mph - N/A   Clear
4:48 PM 44.6 °F 40.2 °F 28.4 °F 53% 29.83 in 10.0 mi WSW 8.1 mph - N/A   Clear
5:08 PM 42.8 °F 37.0 °F 28.4 °F 57% 29.83 in 10.0 mi WSW 10.4 mph - N/A   Clear
5:29 PM 42.8 °F 37.0 °F 28.4 °F 57% 29.83 in 10.0 mi West 10.4 mph - N/A   Scattered Clouds
5:48 PM 41.0 °F 35.2 °F 28.4 °F 61% 29.83 in 10.0 mi West 9.2 mph - N/A   Clear
6:08 PM 41.0 °F 35.8 °F 28.4 °F 61% 29.82 in 10.0 mi West 8.1 mph - N/A   Clear
6:48 PM 39.2 °F 32.0 °F 28.4 °F 65% 29.82 in 10.0 mi West 11.5 mph - N/A   Scattered Clouds
7:09 PM 37.4 °F 31.4 °F 28.4 °F 70% 29.82 in 10.0 mi West 8.1 mph - N/A   Mostly Cloudy
7:28 PM 37.4 °F 31.4 °F 28.4 °F 70% 29.82 in 10.0 mi West 8.1 mph - N/A   Mostly Cloudy
7:48 PM 35.6 °F 29.9 °F 26.6 °F 70% 29.81 in 10.0 mi West 6.9 mph - N/A   Scattered Clouds
8:09 PM 35.6 °F 28.6 °F 26.6 °F 70% 29.82 in 10.0 mi SW 9.2 mph - N/A   Scattered Clouds
8:28 PM 33.8 °F 27.7 °F 26.6 °F 75% 29.82 in 10.0 mi SW 6.9 mph - N/A   Mostly Cloudy
8:48 PM 32.0 °F 24.8 °F 28.4 °F 87% 29.82 in 10.0 mi SW 8.1 mph - N/A   Overcast
9:09 PM 33.8 °F 27.0 °F 28.4 °F 81% 29.82 in 10.0 mi SW 8.1 mph - N/A   Overcast
9:28 PM 33.8 °F 27.7 °F 30.2 °F 87% 29.82 in 10.0 mi SW 6.9 mph - N/A   Overcast
9:48 PM 32.0 °F 26.4 °F 28.4 °F 87% 29.83 in 10.0 mi SW 5.8 mph - N/A   Overcast
10:09 PM 32.0 °F 24.8 °F 28.4 °F 87% 29.83 in 10.0 mi SW 8.1 mph - N/A   Overcast
10:28 PM 32.0 °F 24.8 °F 28.4 °F 87% 29.82 in 10.0 mi SW 8.1 mph - N/A   Overcast
10:48 PM 32.0 °F 25.6 °F 28.4 °F 87% 29.82 in 10.0 mi SW 6.9 mph - N/A   Overcast
11:09 PM 32.0 °F 24.2 °F 28.4 °F 87% 29.82 in 10.0 mi SW 9.2 mph - N/A   Overcast
11:28 PM 32.0 °F 24.2 °F 30.2 °F 93% 29.82 in 10.0 mi WSW 9.2 mph - N/A   Overcast
11:48 PM 32.0 °F 25.6 °F 30.2 °F 93% 29.81 in 7.0 mi WSW 6.9 mph - N/A Snow Light Snow